User: anonymous   Login
Location: Unspecified
(0.0000°N, 0.0000°E)
Time: 12:52:11
(UTC+00:00)
Language:

OFEQ 9 - Orbit

View from above orbital plane
View from above orbital plane
View from above satellite
View from above satellite

Ground track
Ground track

The orbit data is extracted from the following two-line orbital elements,

1 36608U 10031A   16306.14860876 0.00007000  00000-0  23331-3 0    09
2 36608 141.7345 223.0928 0006000 261.4103  98.5889 15.30172971    02
Epoch (UTC): 01 November 2016 03:33:59
Eccentricity: 0.0006000
inclination: 141.7345°
perigee height: 471 km
apogee height: 479 km
right ascension of ascending node: 223.0928°
argument of perigee: 261.4103°
revolutions per day: 15.30172971
mean anomaly at epoch: 98.5889°
orbit number at epoch: 0

The dashed part of the orbit path shows where the satellite is in the earth's shadow,  

DLR